Terug naar catalogus

STARLINK-3238

ActiefCommunicatieVLEO
NORAD 49734·PAYLOAD·🇺🇸 United States

Gelanceerd Dec 2, 2021 vanaf Cape Canaveral Space Force Station

Loading…

Volgende Passages (komende 24 uur)

TLE

VersSource: CelesTrak SupGP

Epoch: Sep 14, 2026, 20:23 UTC

1 49734C 21115L   26257.84979167 -.00026768  00000+0 -86076-3 0  2577
2 49734  53.1584   6.2292 0001077  83.2665 177.7029 15.31716869    12

Volg STARLINK-3238 in realtime met AllMySat

Download on the App Store